Location: Artiguedieu
(43.5000°N, 0.5454°E)
Time: 19:57:26
(UTC+00:00)

Explorer 7 - Pass Details

Date: 02 August 2021
Orbit: 484 x 676 km, 50.3° (Epoch: 18 September)

Event Time Altitude Azimuth Distance (km) Brightness Sun altitude
Rises 12:00:38 0° 283° (WNW) 2,772 10.3 64.1°
Reaches altitude 10° 12:04:08 10° 253° (WSW) 1,920 9.8 64.1°
Maximum altitude 12:05:53 12° 229° (SW) 1,800 9.9 64.1°
Drops below altitude 10° 12:07:41 10° 206° (SSW) 1,964 10.2 64.1°
Sets 12:11:22 0° 176° (S) 2,912 10.9 64.1°
